Date,TemperatureHighF,TemperatureAvgF,TemperatureLowF,DewpointHighF,DewpointAvgF,DewpointLowF,HumidityHigh,HumidityAvg,HumidityLow,PressureMaxIn,PressureMinIn,WindSpeedMaxMPH,WindSpeedAvgMPH,GustSpeedMaxMPH,PrecipitationSumIn
2013-1-1,45.2,34.2,25.6,30.6,24.3,17.1,98,71,33,30.51,30.35,17,2,20,0.01
2013-1-2,48.6,39.3,30.5,28.6,23.1,17.4,79,53,32,30.35,30.17,18,2,18,0.00
2013-1-3,49.9,36.9,30.0,30.1,25.0,18.4,84,64,30,30.35,30.14,9,1,10,0.00
2013-1-4,43.7,33.7,26.8,33.9,29.5,24.9,95,85,66,30.37,30.23,5,0,6,0.00
2013-1-5,42.7,35.5,31.8,35.9,32.6,29.2,97,89,73,30.25,30.17,6,0,6,0.06
2013-1-6,39.4,35.7,33.2,37.5,34.5,31.8,98,96,90,30.29,30.19,4,0,4,0.00
2013-1-7,40.5,37.6,35.3,39.4,36.9,33.9,99,97,93,30.34,30.25,4,0,4,0.04
2013-1-8,49.4,39.3,35.9,45.4,38.5,35.3,99,97,85,30.37,30.10,8,0,8,0.00
2013-1-9,44.9,36.3,31.6,39.5,33.4,28.2,99,90,76,30.10,29.93,16,2,16,0.11
2013-1-10,33.3,31.1,28.9,31.3,29.2,26.6,98,93,82,30.22,30.02,13,1,16,0.00
2013-1-11,35.1,30.4,21.7,30.2,25.7,19.1,93,83,73,30.32,30.19,15,2,17,0.02
2013-1-12,30.2,22.4,16.3,24.5,19.2,14.4,94,88,75,30.43,30.31,6,0,7,0.00
2013-1-13,29.2,20.5,14.7,22.3,17.4,12.6,94,88,74,30.53,30.42,5,0,5,0.00
2013-1-14,34.6,23.2,15.4,25.3,20.0,13.8,95,88,63,30.63,30.52,5,0,5,0.00
2013-1-15,40.1,27.3,20.8,30.2,23.6,19.1,96,87,64,30.70,30.61,3,0,4,0.00
2013-1-16,33.2,27.6,24.1,29.0,25.8,22.6,97,93,83,30.71,30.63,2,0,2,0.01
2013-1-17,46.4,36.8,25.7,34.3,27.4,23.4,94,69,52,30.52,30.35,2,0,4,0.03
2013-1-18,48.4,36.9,27.7,32.9,25.5,17.3,85,65,38,30.37,30.28,3,0,3,0.01
2013-1-19,49.2,38.3,30.3,31.5,24.0,17.2,71,56,39,30.37,30.28,4,0,5,0.00
2013-1-20,47.1,35.2,26.3,30.9,23.8,19.3,80,63,51,30.38,30.27,4,0,4,0.00
2013-1-21,48.4,36.3,26.9,31.3,24.5,19.8,77,62,44,30.33,30.18,4,0,4,0.00
2013-1-22,54.7,41.1,29.1,33.8,24.5,13.2,78,56,20,30.21,29.97,13,1,17,0.00
2013-1-23,54.6,50.3,42.7,42.7,32.2,15.0,96,56,22,30.11,29.86,28,5,28,0.02
2013-1-24,50.9,43.5,39.2,46.0,41.8,38.2,98,94,82,30.22,30.10,8,0,9,0.00
2013-1-25,49.1,44.2,41.7,47.5,43.3,40.2,99,97,90,30.22,29.99,5,0,6,0.25
2013-1-26,44.0,36.9,32.5,43.7,34.6,31.3,99,92,81,30.14,30.00,12,1,13,0.20
2013-1-27,39.7,34.5,32.0,34.4,31.9,30.8,97,91,72,30.25,30.14,5,0,5,0.06
2013-1-28,40.1,36.8,32.1,37.2,34.6,31.3,98,92,84,30.36,30.18,9,2,11,0.11
2013-1-29,42.9,38.5,34.0,38.5,35.8,32.4,96,90,81,30.54,30.35,9,1,10,0.01
2013-1-30,40.9,36.8,34.7,37.0,34.7,32.6,97,92,84,30.61,30.49,6,0,6,0.00
2013-1-31,37.9,35.3,33.4,35.5,33.6,31.8,96,94,90,30.49,30.39,4,0,4,0.00
2013-2-1,43.1,33.8,29.5,37.6,32.1,28.8,98,94,80,30.41,30.28,5,0,5,0.00
2013-2-2,45.9,34.0,27.0,40.5,32.5,26.1,98,94,77,30.40,30.33,4,0,4,0.01
2013-2-3,44.2,33.7,25.8,38.4,31.8,24.8,98,93,77,30.40,30.28,3,0,3,0.00
2013-2-4,45.2,36.9,30.0,39.3,34.2,29.1,98,90,77,30.30,30.03,5,0,5,0.00
2013-2-5,43.1,37.5,32.2,41.0,35.7,30.5,97,94,79,30.19,30.04,11,0,12,0.09
2013-2-6,48.4,38.4,30.4,39.7,33.9,28.4,98,84,59,30.21,29.98,8,1,10,0.01
2013-2-7,42.7,36.0,32.1,35.6,32.5,27.8,98,88,58,30.08,29.98,11,1,11,0.20
2013-2-8,40.3,34.6,31.0,34.1,30.5,26.4,98,86,66,30.27,30.07,10,1,11,0.05
2013-2-9,43.8,36.8,30.2,33.1,29.0,24.9,87,74,59,30.29,30.23,11,1,12,0.00
2013-2-10,48.4,36.9,29.0,36.9,31.9,27.3,95,83,61,30.32,30.22,9,1,9,0.00
2013-2-11,36.4,31.9,27.0,33.3,30.2,25.7,97,93,88,30.49,30.29,5,0,6,0.00
2013-2-12,49.7,37.5,30.2,38.9,33.7,29.3,98,87,62,30.58,30.49,13,1,13,0.00
2013-2-13,53.3,41.6,32.0,39.9,35.8,29.9,95,81,58,30.53,30.43,11,1,11,0.00
2013-2-14,54.5,45.4,38.8,42.6,37.9,33.1,89,75,59,30.53,30.40,8,1,9,0.00
2013-2-15,67.0,50.3,35.2,37.1,33.1,27.5,91,56,24,30.42,30.23,19,2,19,0.00
2013-2-16,56.9,44.8,34.6,38.0,33.3,29.3,87,65,43,30.28,30.14,13,2,13,0.00
2013-2-17,47.2,37.9,27.5,31.5,29.1,24.6,91,71,47,30.25,30.06,10,1,10,0.00
2013-2-18,42.7,34.7,28.1,33.5,28.7,23.3,92,79,66,30.07,29.82,12,1,12,0.00
2013-2-19,39.4,35.1,30.6,32.9,30.0,25.5,95,82,68,30.01,29.66,10,1,12,0.09
2013-2-20,45.2,37.7,31.8,33.4,30.5,27.4,96,77,51,30.15,30.01,9,1,10,0.00
2013-2-21,42.2,36.2,31.4,34.5,31.8,28.8,96,85,66,30.31,30.15,10,1,11,0.17
2013-2-22,49.9,37.8,30.2,39.5,33.6,27.8,97,86,58,30.33,30.08,18,1,18,0.17
2013-2-23,40.4,34.9,30.8,33.6,30.5,27.9,96,84,68,30.47,30.19,11,2,12,0.02
2013-2-24,46.6,34.9,25.4,36.1,29.8,22.9,92,82,62,30.49,30.25,9,1,10,0.00
2013-2-25,45.9,38.7,33.1,37.7,31.6,23.3,97,77,43,30.42,30.24,20,2,20,0.04
2013-2-26,51.5,37.2,26.2,33.2,27.7,18.3,90,70,29,30.42,30.27,12,1,13,0.00
2013-2-27,53.7,41.1,30.1,37.3,30.8,24.5,84,68,44,30.40,30.32,13,1,13,0.00
2013-2-28,51.6,45.8,41.3,46.3,42.5,36.5,95,89,75,30.54,30.33,5,0,6,0.01
2013-3-1,60.8,49.1,39.4,48.4,43.5,37.9,97,82,56,30.54,30.30,11,1,13,0.00
2013-3-2,52.9,45.6,38.9,45.6,41.9,36.8,95,87,75,30.30,30.17,9,1,10,0.22
2013-3-3,52.6,43.5,33.8,42.2,38.5,30.9,97,83,57,30.18,30.08,8,1,8,0.01
2013-3-4,56.9,41.0,28.2,41.8,35.3,26.8,97,81,55,30.14,29.95,11,1,12,0.00
2013-3-5,50.5,41.5,36.7,38.0,35.4,30.3,90,79,47,29.95,29.59,18,2,18,0.02
2013-3-6,49.4,40.6,31.8,37.4,31.8,23.0,92,72,41,30.00,29.53,12,2,13,0.03
2013-3-7,50.0,36.4,27.0,34.8,29.0,24.4,93,77,38,30.04,29.95,8,1,8,0.00
2013-3-8,51.4,38.5,27.1,35.2,27.5,15.2,95,69,25,30.21,29.99,12,2,13,0.00
2013-3-9,55.8,40.6,28.7,35.4,28.2,12.6,92,65,20,30.51,30.21,12,2,14,0.00
2013-3-10,60.0,43.6,31.1,37.9,30.3,23.3,84,62,27,30.53,30.39,8,1,10,0.00
2013-3-11,60.9,47.2,35.7,43.8,37.1,31.1,90,69,44,30.42,30.21,11,1,12,0.00
2013-3-12,62.1,48.6,37.3,48.1,41.4,35.8,98,77,48,30.25,30.14,9,1,10,0.00
2013-3-13,63.1,49.7,40.4,47.6,41.8,36.3,92,75,54,30.23,30.11,8,1,9,0.00
2013-3-14,62.1,52.1,41.6,48.8,42.4,35.1,95,71,55,30.22,30.09,14,1,14,0.00
2013-3-15,62.4,50.5,39.2,44.6,39.4,34.8,88,67,44,30.23,30.12,11,2,13,0.00
2013-3-16,54.7,46.1,40.1,45.1,40.9,37.6,97,83,63,30.18,30.09,14,2,20,0.00
2013-3-17,48.9,40.4,32.1,37.9,33.9,29.4,96,79,53,30.29,30.17,15,2,15,0.00
2013-3-18,55.2,40.7,26.3,38.7,32.7,25.8,100,75,46,30.27,30.10,12,1,12,0.00
2013-3-19,60.0,49.3,40.9,46.5,39.8,33.3,84,70,48,30.11,29.81,18,1,18,0.00
2013-3-20,57.7,45.9,34.2,46.6,39.9,29.0,94,80,56,30.19,29.75,18,4,21,0.02
2013-3-21,46.2,38.0,32.8,33.1,29.1,23.0,98,72,46,30.34,30.19,13,2,13,0.00
2013-3-22,44.2,36.4,26.8,30.1,25.1,21.8,89,65,44,30.38,30.31,12,2,14,0.00
2013-3-23,51.0,36.6,22.9,31.4,25.2,20.8,94,67,32,30.38,30.22,14,2,14,0.00
2013-3-24,58.2,42.8,30.1,37.6,32.0,26.1,87,67,43,30.25,30.03,10,1,10,0.00
2013-3-25,59.8,46.6,35.7,44.5,38.8,33.1,99,75,52,30.03,29.86,12,1,12,0.08
2013-3-26,54.6,45.8,40.2,45.5,42.3,39.5,100,88,68,29.98,29.92,7,1,8,0.03
2013-3-27,57.9,48.3,38.7,48.7,44.5,38.4,100,87,68,29.98,29.89,11,2,13,0.05
2013-3-28,56.2,49.3,44.6,51.8,47.2,44.6,100,93,76,30.12,29.97,11,1,11,0.02
2013-3-29,68.0,52.6,40.6,53.3,46.0,40.6,100,81,42,30.18,30.06,10,1,10,0.00
2013-3-30,72.5,56.6,41.0,53.2,46.2,39.6,97,71,42,30.11,29.91,11,1,12,0.00
2013-3-31,57.8,51.9,47.6,52.0,49.1,47.3,100,90,73,30.01,29.93,8,1,9,0.29
2013-4-1,56.2,48.0,43.4,49.7,46.1,43.4,100,93,73,30.19,30.00,10,1,10,0.81
2013-4-2,63.2,52.4,44.8,50.8,46.4,43.8,100,81,56,30.20,30.10,13,1,13,0.00
2013-4-3,64.5,52.6,40.6,53.7,47.8,40.6,100,85,65,30.14,29.88,8,1,9,0.00
2013-4-4,64.5,55.2,44.9,50.3,45.0,39.2,99,69,53,29.95,29.75,17,3,19,0.10
2013-4-5,56.2,48.5,40.7,50.3,45.6,40.6,100,90,64,30.03,29.96,5,0,6,0.06
2013-4-6,54.7,47.8,42.5,48.6,44.4,38.1,100,89,58,30.06,29.92,11,1,11,0.06
2013-4-7,50.9,43.5,32.8,44.2,39.8,32.8,100,87,68,29.97,29.84,18,3,18,0.80
2013-4-8,49.1,40.3,33.4,37.9,34.8,30.3,98,81,59,30.29,29.97,15,3,15,0.02
2013-4-9,61.6,46.5,33.9,43.5,36.3,21.3,100,73,23,30.37,30.27,11,1,15,0.00
2013-4-10,45.9,43.5,41.3,40.7,40.0,39.1,92,88,81,30.32,30.30,3,0,3,0.00
2013-4-11,58.4,48.6,40.2,43.6,40.2,35.5,96,74,49,30.28,30.07,11,2,14,0.00
2013-4-12,65.2,48.6,34.0,48.3,38.9,34.0,100,74,37,30.10,29.87,13,2,14,0.00
2013-4-13,51.9,45.2,38.6,40.2,34.7,30.4,87,67,46,30.08,29.93,15,5,17,0.00
2013-4-14,46.7,39.7,29.7,35.3,31.8,27.9,96,74,51,30.09,29.89,11,2,11,0.05
2013-4-15,43.1,36.9,33.0,37.5,33.5,31.3,100,88,67,30.18,29.94,12,2,14,0.13
2013-4-16,49.7,40.4,34.6,40.1,34.3,31.8,93,79,53,30.39,30.18,15,3,15,0.03
2013-4-17,56.4,44.5,32.0,38.9,33.8,27.3,99,69,38,30.47,30.38,12,2,14,0.00
2013-4-18,63.2,48.2,33.1,44.4,38.6,31.0,95,71,48,30.46,30.31,14,2,15,0.00
2013-4-19,61.9,50.8,42.4,50.2,43.1,38.2,95,76,49,30.35,30.21,16,2,18,0.00
2013-4-20,64.8,51.6,37.1,46.0,39.4,28.7,99,67,27,30.32,30.16,12,2,13,0.00
2013-4-21,65.8,51.9,37.0,46.9,41.2,35.1,96,70,37,30.27,30.16,12,2,12,0.00
2013-4-22,69.3,54.2,41.0,48.6,39.3,24.7,100,64,22,30.23,30.10,10,1,10,0.00
2013-4-23,70.3,56.3,40.7,36.2,27.8,21.1,50,34,19,30.23,29.99,16,3,16,0.00
2013-4-24,75.0,58.7,41.9,36.4,27.5,23.3,56,33,16,30.09,29.90,26,3,28,0.00
2013-4-25,75.2,58.8,42.5,43.2,35.9,26.3,67,44,17,30.12,29.95,12,2,12,0.00
2013-4-26,79.1,62.1,45.1,51.2,42.4,36.9,86,52,25,30.20,30.11,12,2,12,0.00
2013-4-27,78.2,63.0,46.9,48.8,41.8,36.3,76,48,25,30.23,30.08,13,2,13,0.00
2013-4-28,70.2,57.8,43.4,44.3,39.6,34.5,80,52,35,30.20,30.07,13,2,13,0.00
2013-4-29,63.7,54.7,44.1,49.8,43.1,35.1,84,66,43,30.15,29.99,14,2,16,0.00
2013-4-30,59.8,47.5,37.8,36.7,32.4,26.0,85,59,29,30.32,30.06,13,3,13,0.00
2013-5-1,73.5,52.0,31.1,38.4,30.1,19.8,87,50,19,30.40,30.29,14,2,20,0.00
2013-5-2,80.0,66.3,54.4,40.9,28.0,17.4,49,24,16,30.34,30.09,22,4,22,0.00
2013-5-3,80.0,63.2,46.7,47.5,40.2,34.2,76,45,22,30.18,29.96,11,2,12,0.00
2013-5-4,78.3,64.6,50.3,42.8,35.1,28.1,67,36,17,30.03,29.68,18,3,21,0.00
2013-5-5,79.8,60.3,48.5,56.5,43.4,37.0,87,57,26,29.75,29.57,18,2,22,0.18
2013-5-6,68.3,55.6,45.9,55.8,50.2,44.3,100,83,53,29.91,29.74,12,1,12,0.11
2013-5-7,64.2,57.0,51.4,57.4,54.0,51.3,100,90,75,29.99,29.90,9,1,11,0.00
2013-5-8,71.7,58.6,49.7,58.4,53.7,49.6,100,85,56,30.09,29.97,15,1,16,0.17
2013-5-9,79.7,62.3,47.6,61.8,53.9,47.6,100,77,42,30.13,30.01,8,1,9,0.00
2013-5-10,84.3,68.4,53.1,62.9,56.6,51.1,95,69,40,30.15,30.02,10,2,12,0.00
2013-5-11,84.7,69.9,55.8,66.2,57.9,47.3,95,67,45,30.15,29.95,11,1,11,0.00
2013-5-12,81.7,64.2,53.8,58.3,50.8,45.4,81,63,42,30.07,29.95,10,1,12,0.00
2013-5-13,72.3,62.8,49.1,54.3,46.5,40.0,77,56,40,30.11,30.01,14,2,14,0.00
2013-5-14,70.7,57.2,42.2,51.5,45.0,39.6,99,67,36,30.11,29.98,15,2,15,0.00
2013-5-15,67.2,54.6,44.2,52.5,46.2,40.1,91,74,55,30.05,29.98,13,1,15,0.00
2013-5-16,59.1,52.8,47.8,54.0,46.6,42.4,97,80,66,30.01,29.90,11,2,12,0.05
2013-5-17,62.2,52.8,45.3,45.1,42.5,40.3,93,69,47,30.08,29.98,11,1,12,0.00
2013-5-18,61.7,54.0,46.8,51.3,45.9,42.4,87,74,62,30.28,30.08,12,2,13,0.00
2013-5-19,49.7,47.6,45.8,42.9,42.3,41.8,86,82,77,30.32,30.28,10,1,11,0.00
2013-5-20,77.4,64.8,41.7,52.1,43.8,30.6,100,51,24,30.25,29.90,10,2,10,0.00
2013-5-21,62.1,48.2,33.8,45.0,35.7,28.7,100,65,38,30.09,29.80,18,2,22,0.11
2013-5-22,51.8,40.7,30.4,45.4,36.3,30.3,100,86,54,30.11,30.04,12,1,12,0.28
2013-5-23,58.4,46.5,36.9,42.4,38.6,36.3,100,76,47,30.08,30.02,9,1,12,0.02
2013-5-24,57.2,42.7,39.2,42.2,38.1,36.1,92,84,57,30.09,30.03,6,0,7,0.00
2013-5-25,68.8,57.5,36.3,44.2,41.6,35.7,98,58,38,30.07,29.92,9,2,10,0.00
2013-5-26,63.3,52.5,46.7,53.3,47.3,43.3,100,84,57,30.05,29.97,8,1,9,0.01
2013-5-27,62.2,53.0,46.3,56.9,50.5,44.2,100,92,75,30.02,29.82,7,0,8,0.32
2013-5-28,69.3,56.6,47.3,53.8,49.3,43.8,100,79,49,29.95,29.76,10,1,10,0.02
2013-5-29,66.9,55.4,46.7,51.4,45.4,38.8,100,72,44,30.04,29.76,18,2,18,0.02
2013-5-30,65.5,53.5,44.4,45.7,41.8,39.3,87,67,39,30.19,30.03,14,2,14,0.00
2013-5-31,74.3,56.2,37.4,49.8,41.7,33.3,99,64,24,30.26,30.12,11,2,11,0.00
2013-6-1,78.1,66.3,45.8,49.6,44.5,32.8,87,49,24,30.18,29.92,11,2,15,0.00
2013-6-2,74.8,61.8,48.3,55.7,50.2,46.4,96,68,40,29.95,29.84,13,2,13,0.00
2013-6-3,80.9,59.8,45.2,56.7,48.0,37.8,98,71,22,29.98,29.86,10,2,11,0.00
2013-6-4,87.3,69.5,50.8,57.7,49.6,42.3,87,53,25,29.97,29.84,10,1,11,0.00
2013-6-5,87.9,70.9,54.1,57.3,48.2,40.2,72,46,27,30.00,29.84,11,1,13,0.00
2013-6-6,87.9,71.7,55.6,59.6,54.4,48.3,82,57,33,29.93,29.82,11,2,11,0.00
2013-6-7,85.5,71.4,56.3,61.4,56.2,49.3,93,62,34,30.01,29.90,11,2,12,0.00
2013-6-8,88.2,61.1,54.2,58.6,52.5,47.9,88,74,26,29.98,29.88,5,0,9,0.00
2013-6-9,86.1,69.4,55.5,53.7,46.3,35.0,72,45,29,29.92,29.73,6,2,13,0.00
2013-6-10,78.3,63.1,47.6,50.1,43.4,35.4,75,50,30,29.85,29.72,14,2,14,0.00
2013-6-11,63.2,53.9,45.2,47.7,44.3,39.1,92,71,54,30.09,29.85,10,2,10,0.00
2013-6-12,65.8,54.2,39.7,45.3,40.5,37.6,93,63,39,30.15,30.06,13,2,13,0.00
2013-6-13,66.2,55.4,44.1,46.5,42.3,38.8,84,63,43,30.25,30.15,14,2,14,0.00
2013-6-14,77.0,59.0,39.8,47.8,43.0,37.6,96,60,28,30.23,29.90,11,2,11,0.00
2013-6-15,80.9,64.8,48.7,51.1,46.2,41.8,80,54,30,29.95,29.82,13,2,14,0.00
2013-6-16,79.0,64.4,49.5,52.8,48.8,45.1,89,59,37,30.06,29.94,11,2,12,0.00
2013-6-17,77.2,61.6,47.5,52.2,48.0,43.1,86,63,40,30.06,29.89,11,2,13,0.00
2013-6-18,65.5,58.4,51.5,49.4,44.8,40.1,88,63,42,29.97,29.88,13,3,14,0.03
2013-6-19,58.7,52.5,44.6,52.1,46.3,41.1,97,80,64,30.12,29.98,11,1,13,0.06
2013-6-20,66.9,56.1,44.1,49.4,45.5,42.5,100,70,46,30.12,30.02,13,2,14,0.00
2013-6-21,73.4,59.0,41.8,50.7,43.0,33.1,97,60,25,30.13,30.01,15,2,15,0.00
2013-6-22,79.5,64.2,46.2,49.6,45.2,40.9,85,53,28,30.07,29.82,11,1,11,0.00
2013-6-23,76.5,63.9,56.7,60.4,51.4,45.1,78,64,46,29.82,29.60,9,1,10,0.00
2013-6-24,59.9,55.2,49.3,58.1,52.2,48.6,100,90,74,29.73,29.64,8,1,9,0.08
2013-6-25,71.0,60.3,53.0,57.5,52.6,49.4,94,76,51,29.88,29.71,11,1,12,0.01
2013-6-26,66.5,57.4,51.8,62.7,56.0,51.1,100,95,82,30.02,29.85,6,0,6,0.15
2013-6-27,84.3,66.4,53.2,64.9,59.0,53.2,100,80,47,30.09,30.02,10,2,13,0.00
2013-6-28,92.6,74.3,58.5,66.7,60.5,56.4,96,67,32,30.08,29.91,9,2,12,0.00
2013-6-29,90.3,79.0,60.2,63.8,58.2,52.8,88,52,29,30.01,29.85,11,2,12,0.00
2013-6-30,95.3,78.5,61.1,63.8,59.1,53.8,78,54,31,29.90,29.73,13,2,13,0.00
2013-7-1,95.1,79.1,62.9,68.2,63.5,58.0,89,62,32,29.91,29.81,9,2,11,0.00
2013-7-2,96.8,81.2,66.9,70.1,64.6,60.3,86,60,31,29.93,29.84,14,2,14,0.00
2013-7-3,95.5,82.8,68.8,68.3,58.7,44.6,82,45,35,29.94,29.82,12,2,15,0.00
2013-7-4,85.3,72.2,59.7,56.9,48.0,41.0,73,44,23,29.93,29.78,17,2,17,0.00
2013-7-5,80.8,66.8,54.5,54.8,50.3,44.8,84,58,33,29.89,29.75,12,2,12,0.00
2013-7-6,85.5,68.0,50.9,55.2,49.3,44.6,82,54,31,29.84,29.69,10,2,13,0.00
2013-7-7,86.8,70.7,54.0,57.4,51.5,45.6,80,53,35,29.84,29.71,14,2,14,0.00
2013-7-8,91.2,66.8,55.0,59.6,53.6,49.9,87,65,31,29.91,29.82,10,1,12,0.00
2013-7-9,95.7,80.9,59.2,58.3,53.8,47.5,74,42,21,29.96,29.83,12,2,12,0.00
2013-7-10,94.1,75.9,61.3,60.2,54.8,52.3,78,51,26,29.93,29.72,11,2,13,0.00
2013-7-11,85.0,71.9,59.2,60.0,53.5,45.3,84,55,29,29.85,29.75,11,2,13,0.00
2013-7-12,82.5,67.2,51.6,53.3,46.9,41.3,78,51,25,29.95,29.83,14,2,15,0.00
2013-7-13,86.0,74.2,51.4,53.4,49.7,44.6,80,44,32,29.98,29.86,12,2,12,0.00
2013-7-14,92.7,74.1,55.8,56.2,50.2,46.1,72,46,24,29.97,29.79,12,2,14,0.00
2013-7-15,94.7,75.5,59.3,56.8,50.7,43.9,67,44,23,29.86,29.61,8,2,11,0.00
2013-7-16,89.5,77.6,62.7,54.1,47.2,37.2,56,35,27,29.93,29.68,14,2,14,0.00
2013-7-17,90.7,72.6,54.0,52.1,44.0,34.1,57,38,20,30.03,29.92,11,2,11,0.00
2013-7-18,94.0,74.2,57.5,57.5,52.0,44.8,79,50,23,30.05,29.88,13,2,15,0.00
2013-7-19,93.0,76.7,57.2,55.8,50.1,44.1,66,42,25,29.99,29.82,12,2,12,0.00
2013-7-20,94.7,75.6,58.0,58.2,51.5,44.8,70,45,22,29.91,29.72,10,2,12,0.00
2013-7-21,96.9,76.4,58.6,59.7,51.0,39.8,71,44,23,29.82,29.69,9,2,13,0.00
2013-7-22,96.0,77.3,58.2,56.1,47.0,39.8,60,36,18,29.88,29.76,14,2,14,0.00
2013-7-23,91.5,76.2,61.2,53.0,47.5,40.1,58,38,23,29.91,29.84,11,1,13,0.00
2013-7-24,94.5,80.1,69.1,58.6,53.3,49.7,58,41,25,29.91,29.83,10,1,12,0.00
2013-7-25,100.3,82.3,65.4,59.4,53.7,47.9,60,40,22,29.93,29.78,12,2,13,0.00
2013-7-26,98.2,81.5,65.9,56.5,48.0,33.2,55,33,18,29.97,29.85,15,2,17,0.00
2013-7-27,91.5,75.1,60.2,51.8,42.5,32.7,54,33,18,29.98,29.78,13,2,13,0.00
2013-7-28,86.5,69.4,51.8,49.1,41.2,28.0,67,38,15,29.90,29.76,15,2,15,0.00
2013-7-29,84.3,68.4,54.0,51.6,44.5,39.1,64,44,25,29.95,29.81,10,2,14,0.00
2013-7-30,83.8,71.5,55.9,53.0,48.2,41.1,63,45,30,30.02,29.95,10,2,11,0.00
2013-7-31,80.9,69.7,60.8,56.0,53.0,50.5,74,57,37,30.01,29.88,10,2,12,0.00
2013-8-1,68.8,59.6,51.9,53.1,51.1,45.9,90,74,56,30.07,29.94,16,2,16,0.00
2013-8-2,80.5,70.2,45.2,53.3,47.9,44.1,96,48,29,30.09,29.94,10,2,11,0.00
2013-8-3,87.7,69.3,52.3,55.2,49.2,44.0,83,53,23,30.01,29.84,12,2,15,0.00
2013-8-4,90.8,73.4,56.3,54.8,49.8,46.4,72,46,24,29.93,29.78,12,2,12,0.00
2013-8-5,90.3,81.9,60.7,56.7,52.0,48.0,65,37,27,29.90,29.78,10,2,13,0.00
2013-8-6,92.4,75.8,60.7,58.0,52.9,48.8,72,47,25,29.89,29.76,12,2,12,0.00
2013-8-7,85.8,71.5,60.7,59.4,55.4,50.8,76,58,36,29.93,29.82,13,2,14,0.00
2013-8-8,77.9,65.7,52.3,57.8,53.9,49.6,92,68,45,29.94,29.82,7,1,10,0.00
2013-8-9,81.0,68.1,55.3,60.0,54.7,49.3,88,63,40,29.90,29.79,15,1,17,0.00
2013-8-10,80.1,64.6,53.8,60.5,52.5,46.9,85,66,33,30.01,29.88,15,1,17,0.00
2013-8-11,81.7,64.5,48.9,57.5,52.5,48.2,99,69,39,30.03,29.89,13,2,14,0.00
2013-8-12,85.2,69.0,54.1,58.7,54.0,51.1,91,62,34,29.97,29.87,13,2,13,0.00
2013-8-13,88.8,71.0,54.9,58.9,54.0,48.3,87,58,34,30.00,29.84,11,2,15,0.00
2013-8-14,87.0,67.9,57.1,54.5,50.5,46.8,70,55,30,29.93,29.82,11,1,12,0.00
2013-8-15,86.8,71.8,56.2,58.3,52.9,46.7,73,53,34,29.90,29.81,6,1,11,0.00
2013-8-16,87.6,74.5,59.3,62.5,58.2,52.4,85,59,38,29.93,29.85,13,2,14,0.00
2013-8-17,87.0,72.5,58.8,60.2,57.0,53.6,88,61,34,29.97,29.86,13,2,14,0.00
2013-8-18,85.3,67.8,56.4,62.0,57.0,53.4,92,71,36,30.01,29.88,11,1,11,0.00
2013-8-19,92.5,81.6,68.3,55.1,53.0,49.8,58,39,24,29.91,29.84,10,2,11,0.00
2013-8-20,88.5,73.5,57.1,59.6,54.2,48.1,84,54,31,29.94,29.78,12,1,12,0.00
2013-8-21,87.2,75.6,61.2,55.0,51.2,47.9,64,44,30,29.86,29.73,9,1,9,0.00
2013-8-22,78.8,66.0,55.0,57.6,52.3,49.1,87,63,37,29.89,29.78,10,1,10,0.04
2013-8-23,82.8,66.0,49.5,57.5,53.5,47.1,97,67,39,29.90,29.76,11,2,11,0.00
2013-8-24,82.0,66.3,51.4,56.2,52.6,49.1,93,64,36,29.83,29.72,12,2,13,0.00
2013-8-25,68.8,61.6,56.2,62.7,57.6,51.9,100,87,67,29.89,29.81,7,1,8,0.58
2013-8-26,79.3,64.7,54.2,60.8,55.1,49.8,100,75,41,29.92,29.87,10,1,13,0.00
2013-8-27,83.5,65.7,50.0,56.5,52.0,47.9,95,65,38,29.92,29.72,4,1,12,0.00
2013-8-28,84.5,67.9,53.4,57.8,52.7,47.2,83,60,38,29.85,29.75,4,1,12,0.00
2013-8-29,84.0,66.6,58.3,59.4,56.2,53.7,85,71,39,30.04,29.82,9,1,11,0.00
2013-8-30,84.5,68.7,54.4,61.9,57.1,53.4,98,69,42,30.08,29.91,11,2,11,0.00
2013-8-31,63.5,61.1,59.2,55.5,55.2,54.8,86,81,75,29.96,29.94,2,0,2,0.00
2013-9-1,83.0,68.1,55.3,56.5,52.5,48.9,80,59,38,29.84,29.72,12,2,12,0.00
2013-9-2,79.1,65.4,52.9,58.2,54.1,51.1,95,69,45,29.89,29.78,15,2,15,0.00
2013-9-3,79.5,64.4,51.3,54.7,51.3,47.4,87,65,40,29.95,29.86,12,2,12,0.00
2013-9-4,75.0,62.8,50.1,57.2,52.9,47.9,93,71,51,29.99,29.92,14,2,15,0.00
2013-9-5,68.5,59.2,52.7,56.9,54.0,51.6,99,84,60,30.10,29.93,15,1,15,0.24
2013-9-6,74.6,57.9,48.9,56.3,51.9,48.3,100,84,40,30.19,30.03,13,1,13,0.00
2013-9-7,85.0,66.4,50.0,56.9,51.1,48.0,96,61,28,30.03,29.84,8,1,11,0.00
2013-9-8,87.0,70.0,54.8,56.9,51.6,46.0,78,55,25,29.96,29.83,12,1,12,0.00
2013-9-9,90.0,71.7,54.4,58.5,52.8,42.7,89,56,20,29.93,29.75,7,1,11,0.00
2013-9-10,96.5,74.8,57.3,59.1,50.4,42.4,76,48,17,29.81,29.67,10,1,10,0.00
2013-9-11,96.1,75.7,61.0,53.6,47.8,43.5,56,39,18,29.83,29.74,10,2,10,0.00
2013-9-12,91.7,79.1,61.3,58.2,54.5,52.0,74,46,28,29.89,29.76,10,2,11,0.00
2013-9-13,90.8,77.4,59.7,57.5,52.2,49.3,72,44,26,29.85,29.67,11,2,12,0.00
2013-9-14,91.3,73.5,58.5,58.3,52.5,48.4,72,50,26,29.74,29.57,11,1,12,0.00
2013-9-15,80.2,67.8,55.8,56.8,51.2,47.6,76,57,35,29.84,29.62,13,2,13,0.00
2013-9-16,75.0,61.9,48.5,54.9,50.5,46.2,97,68,41,29.91,29.78,11,2,13,0.00
2013-9-17,59.7,54.4,48.9,55.6,51.2,48.1,99,89,67,30.03,29.77,14,1,14,0.33
2013-9-18,69.0,55.0,44.2,54.0,49.0,44.2,100,82,50,30.10,29.95,9,1,10,0.00
2013-9-19,76.9,53.4,43.1,51.6,45.7,41.4,95,78,31,29.97,29.81,11,1,11,0.00
2013-9-20,72.7,57.1,48.7,54.0,45.6,40.3,100,68,36,29.78,29.60,8,1,13,0.34
2013-9-21,58.4,51.1,46.9,54.9,49.9,46.8,100,96,80,29.87,29.66,7,0,7,0.13
2013-9-22,63.4,53.1,46.6,53.3,49.2,46.1,100,88,61,29.95,29.86,7,0,7,0.06
2013-9-23,64.1,55.2,49.1,57.9,51.5,49.1,100,88,73,29.99,29.94,13,1,14,0.00
2013-9-24,56.2,50.7,43.8,51.0,48.4,43.0,100,92,78,29.99,29.89,13,1,13,0.20
2013-9-25,53.0,45.4,40.9,46.1,42.5,38.8,98,90,64,30.06,29.90,13,1,13,0.10
2013-9-26,57.9,47.5,40.9,44.8,41.3,38.8,99,81,53,30.19,30.05,12,1,12,0.00
2013-9-27,62.9,48.4,36.4,46.7,41.5,36.1,100,79,43,30.23,30.09,10,1,12,0.00
2013-9-28,69.8,58.7,47.6,53.0,47.1,41.6,87,67,44,30.09,29.70,18,1,19,0.00
2013-9-29,63.7,54.4,50.5,55.8,52.4,48.6,100,93,60,29.82,29.68,18,1,18,1.01
2013-9-30,51.8,50.5,49.1,44.1,43.5,42.4,82,77,72,30.06,30.02,6,1,7,0.00
2013-10-1,57.4,48.0,39.8,46.0,42.6,38.4,98,83,57,30.18,30.04,15,1,15,0.00
2013-10-2,53.9,43.2,32.0,43.1,38.4,32.0,100,85,52,30.21,30.11,13,1,13,0.07
2013-10-3,55.6,45.1,38.6,42.2,39.5,37.1,99,82,57,30.37,30.21,10,1,11,0.03
2013-10-4,63.0,40.7,32.8,45.1,37.3,31.8,99,89,48,30.44,30.33,8,0,8,0.00
2013-10-5,74.1,59.3,42.9,47.9,34.8,26.9,66,41,25,30.32,30.13,6,2,18,0.00
2013-10-6,71.2,54.9,41.6,47.2,39.8,34.5,80,58,34,30.14,30.02,3,1,9,0.00
2013-10-7,57.9,50.4,43.1,47.0,40.1,33.4,81,68,53,30.15,30.00,5,1,15,0.00
2013-10-8,53.6,46.9,39.8,44.6,40.8,38.4,98,80,59,30.16,29.95,3,1,11,0.08
2013-10-9,55.9,45.4,36.4,42.5,39.6,35.9,100,82,54,29.97,29.90,3,1,9,0.00
2013-10-10,58.4,45.9,35.3,46.2,40.3,35.3,100,82,49,30.08,29.94,3,1,12,0.00
2013-10-11,57.6,48.1,34.8,46.1,42.1,34.8,100,81,63,30.14,30.05,9,1,10,0.00
2013-10-12,53.4,43.9,38.7,47.2,42.6,38.4,100,95,78,30.13,30.03,12,1,12,0.10
2013-10-13,56.4,43.9,35.5,46.8,41.2,35.5,100,91,67,30.25,30.13,10,1,10,0.00
2013-10-14,63.4,46.4,34.8,46.9,39.0,32.6,99,78,51,30.32,30.19,7,1,7,0.01
2013-10-15,66.8,51.9,37.6,38.3,32.7,29.0,81,51,26,30.25,30.09,19,2,26,0.00
2013-10-16,67.3,49.8,37.5,42.5,35.9,29.0,78,60,32,30.15,30.08,6,1,7,0.00
2013-10-17,67.6,49.2,38.2,46.6,39.4,35.1,89,70,45,30.19,30.08,6,1,7,0.00
2013-10-18,70.2,53.6,39.4,50.1,42.8,36.8,93,68,44,30.16,30.04,6,0,6,0.00
2013-10-19,71.4,53.8,42.4,50.1,41.1,33.3,75,63,44,30.15,30.07,6,1,6,0.00
2013-10-20,69.3,53.3,40.9,51.6,42.6,36.0,86,68,45,30.12,30.01,6,1,6,0.00
2013-10-21,72.8,55.1,42.5,51.4,42.1,37.3,86,63,41,30.08,29.95,5,1,6,0.00
2013-10-22,72.6,56.8,46.1,49.7,41.8,36.6,72,58,39,30.05,29.93,5,1,5,0.00
2013-10-23,70.0,54.9,43.2,48.8,41.4,36.1,78,61,44,30.01,29.92,6,1,6,0.00
2013-10-24,51.9,48.0,44.4,37.3,36.4,35.6,72,64,56,30.00,29.97,2,0,3,0.00
2013-10-25,67.8,52.4,41.5,47.9,38.7,33.3,76,60,43,30.20,30.08,2,0,5,0.00
2013-10-26,66.3,52.1,39.4,46.8,39.9,33.9,83,64,48,30.26,30.07,7,1,7,0.00
2013-10-27,56.6,45.3,38.6,46.7,40.3,36.3,97,83,65,30.08,29.76,18,2,18,0.16
2013-10-28,47.4,43.5,38.0,43.9,41.3,37.7,100,92,81,29.87,29.72,11,1,11,0.11
2013-10-29,55.7,42.2,31.3,43.8,37.9,31.3,100,86,57,30.08,29.87,5,0,6,0.00
2013-10-30,55.8,44.6,35.7,44.6,40.1,35.4,100,85,61,30.23,30.08,9,1,9,0.00
2013-10-31,56.7,43.8,39.0,44.9,39.5,36.8,94,85,62,30.31,30.22,4,0,5,0.00
2013-11-1,64.3,49.9,38.2,50.5,44.4,38.0,100,82,59,30.25,30.05,4,1,6,0.00
2013-11-2,50.5,44.8,39.3,48.5,41.2,32.8,100,87,75,30.19,29.91,11,2,11,0.21
2013-11-3,44.9,39.0,34.3,39.2,35.8,33.1,100,89,69,30.24,30.18,10,1,11,0.04
2013-11-4,45.0,37.4,33.1,40.8,36.5,33.1,100,97,83,30.27,30.19,4,0,6,0.01
2013-11-5,46.7,41.9,36.7,46.1,41.8,36.1,100,100,97,30.34,30.25,4,0,4,0.12
2013-11-6,54.4,47.1,43.4,51.2,46.6,43.4,100,98,88,30.34,30.17,6,0,6,0.00
2013-11-7,55.2,46.4,42.4,51.7,46.1,42.0,100,99,86,30.18,30.06,8,1,9,0.17
2013-11-8,46.2,39.4,33.3,43.4,39.1,33.3,100,99,89,30.22,30.11,6,0,6,0.01
2013-11-9,48.6,39.7,32.3,44.7,39.2,32.3,100,98,86,30.15,30.07,4,0,4,0.00
2013-11-10,53.2,43.9,36.8,48.4,42.4,36.8,100,95,82,30.14,30.05,4,0,4,0.01
2013-11-11,62.8,48.2,38.3,46.6,38.8,28.8,100,75,28,30.14,30.02,8,1,11,0.00
2013-11-12,61.7,52.0,46.8,50.2,43.0,28.9,99,76,29,30.37,30.11,5,1,12,0.00
2013-11-13,55.2,48.1,40.4,52.6,47.6,40.1,100,98,86,30.42,30.22,6,0,6,0.03
2013-11-14,44.1,41.1,38.7,44.0,41.1,38.7,100,100,93,30.23,30.09,7,0,7,0.03
2013-11-15,45.2,38.9,35.3,39.9,36.3,34.2,100,91,70,30.10,29.84,3,0,10,0.00
2013-11-16,45.9,40.9,34.5,42.7,38.4,34.2,100,91,76,29.92,29.79,6,1,12,0.00
2013-11-17,49.1,40.1,32.6,40.7,36.6,31.6,97,88,68,30.12,29.99,2,0,6,0.00
2013-11-18,45.7,41.1,34.7,43.5,39.6,34.2,100,94,87,30.09,29.94,4,0,4,0.01
2013-11-19,53.7,46.8,43.1,50.9,46.1,42.6,100,98,81,29.95,29.83,7,0,7,0.22
2013-11-20,46.1,43.8,39.4,46.1,43.7,39.4,100,100,97,30.07,29.85,7,0,7,0.24
2013-11-21,38.9,29.5,22.9,34.2,26.8,17.8,100,90,53,30.53,30.18,2,0,9,0.01
2013-11-22,45.3,34.9,23.4,30.7,23.2,17.9,92,63,46,30.55,30.35,4,1,12,0.00
2013-11-23,52.6,41.3,32.4,34.5,25.4,18.8,69,54,37,30.36,30.15,6,1,6,0.00
2013-11-24,50.1,40.4,31.0,35.3,26.3,19.3,72,58,32,30.31,30.17,7,1,7,0.00
2013-11-25,46.6,37.6,28.5,35.2,28.1,22.8,84,68,59,30.40,30.31,3,0,4,0.00
2013-11-26,45.5,36.9,30.8,36.2,30.6,26.1,87,78,67,30.34,30.17,4,0,4,0.00
2013-11-27,56.2,41.3,34.4,40.6,34.8,31.7,91,78,48,30.11,29.94,4,0,6,0.00
2013-11-28,51.2,41.4,34.2,40.8,35.4,31.4,91,80,66,30.16,30.01,4,0,4,0.00
2013-11-29,49.3,39.8,32.3,40.9,35.5,31.1,96,85,69,30.38,30.23,1,0,7,0.00
2013-11-30,51.0,42.2,33.5,43.3,37.9,33.0,98,85,71,30.44,30.35,1,0,5,0.00
2013-12-1,52.7,42.6,37.9,45.8,40.7,36.9,100,93,74,30.45,30.23,4,0,7,0.00
2013-12-2,47.3,40.9,31.8,46.8,40.0,30.1,100,97,90,30.23,29.95,10,2,15,0.44
2013-12-3,35.9,31.2,27.4,32.3,28.4,18.2,100,90,68,30.17,30.05,8,1,9,0.00
2013-12-4,30.5,23.2,15.7,21.7,17.7,14.7,97,80,60,30.28,30.16,12,1,12,0.00
2013-12-5,29.4,20.7,13.1,21.9,16.8,11.7,94,85,71,30.33,30.22,1,0,6,0.00
2013-12-6,31.7,26.2,22.2,29.1,23.9,17.5,100,91,78,30.23,29.90,5,0,5,0.00
2013-12-7,26.7,20.9,10.8,26.7,19.4,9.0,100,94,82,30.40,29.93,0,0,0,0.00
2013-12-8,20.4,12.1,5.5,16.0,10.4,3.8,99,93,83,30.66,30.40,3,0,3,0.00